Location: ????????
(56.0167°N, 38.0333°E)
Time: 08:01:47
(UTC+00:00)

NOSS 2-3 (D) - Pass Details

Date: 19 May 2025
Orbit: 497 x 1701 km, 63.3° (Epoch: 24 April)

Event Time Altitude Azimuth Distance (km) Brightness Sun altitude
Rises 23:00:48 0° 305° (NW) 2,869 7.1 -11.3°
Reaches altitude 10° 23:02:50 10° 309° (NW) 2,068 6.4 -11.2°
Maximum altitude 23:07:29 67° 32° (NNE) 849 4.5 -10.9°
Drops below altitude 10° 23:13:42 10° 115° (ESE) 2,745 6.9 -10.6°
Sets 23:16:44 0° 118° (ESE) 3,896 7.6 -10.4°
